[[{"header":{"parameterUnit":"m.s-1","parameterCategory":1,"la1":30.2991,"la2":30.254,"lo1":-89.0895,"lo2":-89.0444,"dy":0.0017,"dx":0.0017,"nx":28,"ny":28,"refTime":"2024-05-03T03:00:00:Z","depth":0,"parameterNumber":2,"parameterNumberName":"U-component_of_WINDS"},"data":[0,0,0,0,0,0,0,0,0,0,0,0,0,0,0,0,0,0,0,0,0,0,0,0,0,0,0,0,0,0,0,0,0,0,0,0,0,0,0,0,0,0,0,0,0,0,0,0,0,0,0,0,0,0,0,0,0,0,-0.9119,-0.9119,0,-0.9143,-0.9143,-0.9144,-0.9155,-0.9155,-0.9155,-0.9155,-0.9181,-0.9182,-0.9183,0,0,0,0,0,0,0,0,0,0,0,0,0,-0.9084,-0.9084,-0.9119,-0.9119,-0.9119,-0.9143,-0.9144,-0.9144,-0.9155,-0.9155,-0.9155,-0.9155,-0.9181,-0.9182,-0.9183,0,0,0,0,0,0,0,0,0,0,0,0,0,-0.9103,-0.9084,-0.9119,-0.9128,-0.9129,-0.9143,-0.9144,-0.9144,-0.9155,-0.9155,-0.9155,-0.9155,-0.9181,-0.9182,-0.9183,-0.919,0,0,-0.9186,-0.9187,0,0,0,0,0,0,0,0,-0.9102,-0.9104,-0.9126,-0.9127,-0.9129,-0.9146,-0.9141,-0.9159,-0.9155,-0.9145,-0.9155,-0.9155,-0.917,-0.9172,-0.9176,-0.9191,-0.9193,-0.9186,-0.9187,-0.9187,-0.9188,0,0,0,0,0,0,0,-0.91,-0.9103,-0.9129,-0.9127,-0.9128,-0.9131,-0.9134,-0.9144,-0.9157,-0.9146,-0.9147,-0.915,-0.917,-0.9175,-0.9177,-0.9193,-0.9186,-0.9187,-0.9188,-0.9188,-0.9216,-0.9216,0,0,0,0,0,0,-0.9097,-0.9102,-0.9128,-0.9129,-0.9115,-0.9132,-0.9135,-0.9141,-0.9157,-0.916,-0.915,-0.915,-0.9174,-0.9176,-0.9178,-0.9188,-0.9187,-0.9188,-0.9189,-0.9215,-0.9216,-0.9216,0,0,0,0,0,0,-0.9096,-0.9099,-0.9127,-0.9116,-0.9119,-0.9133,-0.9139,-0.9141,-0.9146,-0.916,-0.9163,-0.9152,-0.9174,-0.9177,-0.9187,-0.9189,-0.9189,-0.919,-0.9215,-0.9216,-0.9216,-0.9207,0,0,0,0,0,0,-0.9095,-0.9099,-0.9102,-0.9116,-0.912,-0.9135,-0.9139,-0.9142,-0.9148,-0.9148,-0.9163,-0.9165,-0.9174,-0.9185,-0.9188,-0.919,-0.9191,-0.9215,-0.9215,-0.9216,-0.9207,-0.9207,-0.9207,0,0,0,0,0,-0.9094,-0.9098,-0.9102,-0.9105,-0.9123,-0.9135,-0.9138,-0.9147,-0.9148,-0.9151,-0.916,-0.9165,-0.9188,-0.9186,-0.919,-0.9192,-0.9215,-0.9215,-0.9216,-0.9208,-0.9207,-0.9207,0,0,0,0,0,0,-0.9085,-0.91,-0.9104,-0.9113,-0.9123,-0.9137,-0.9141,-0.9146,-0.9155,-0.9156,-0.9167,-0.917,-0.918,-0.9187,-0.9185,-0.92,-0.9202,-0.9203,-0.9195,-0.9195,-0.9195,-0.9193,-0.9192,0,0,0,0,0,-0.9083,-0.9091,-0.9105,-0.9111,-0.9116,-0.9127,-0.9133,-0.9139,-0.9149,-0.9154,-0.9163,-0.9174,-0.9183,-0.919,-0.9199,-0.9209,-0.9212,-0.9212,-0.9212,-0.9211,-0.9212,-0.9218,-0.9218,-0.9216,-0.9216,-0.9216,0,0,-0.9081,-0.9091,-0.9095,-0.911,-0.9118,-0.9126,-0.9131,-0.9139,-0.9145,-0.9155,-0.9166,-0.9173,-0.9185,-0.9195,-0.92,-0.9202,-0.9213,-0.9212,-0.9211,-0.9212,-0.9218,-0.9218,-0.9218,-0.9216,-0.9216,-0.9216,0,0,-0.9082,-0.909,-0.9096,-0.9104,-0.9116,-0.9124,-0.9125,-0.9139,-0.9144,-0.9155,-0.9162,-0.917,-0.9186,-0.9195,-0.9201,-0.9205,-0.9211,-0.9208,-0.9206,-0.9212,-0.9212,-0.9212,-0.9214,-0.9214,-0.9209,-0.9209,-0.9209,0,-0.9078,-0.909,-0.9099,-0.9107,-0.9113,-0.9122,-0.9129,-0.9136,-0.9151,-0.9156,-0.9157,-0.9178,-0.9186,-0.9199,-0.92,-0.9205,-0.9207,-0.9207,-0.9211,-0.9212,-0.9212,-0.9214,-0.9214,-0.9208,-0.9208,-0.9208,-0.9208,0,-0.9085,-0.9093,-0.9097,-0.911,-0.9117,-0.9125,-0.9135,-0.9141,-0.9147,-0.9155,-0.9166,-0.9177,-0.9189,-0.9192,-0.9198,-0.9205,-0.9206,-0.9209,-0.9211,-0.9212,-0.9213,-0.9214,-0.9208,-0.9208,-0.9208,-0.9208,0,0,-0.908,-0.9098,-0.9099,-0.9106,-0.912,-0.9127,-0.9135,-0.9146,-0.9151,-0.9161,-0.9168,-0.9182,-0.9185,-0.9193,-0.9199,-0.9204,-0.9207,-0.9207,-0.9207,-0.9207,-0.9216,-0.9214,-0.9214,-0.9211,-0.9211,-0.9211,-0.9215,0,-0.9082,-0.9096,-0.9105,-0.9116,-0.9124,-0.9133,-0.914,-0.9149,-0.9157,-0.9165,-0.9174,-0.9183,-0.9186,-0.9191,-0.9196,-0.9205,-0.9209,-0.9205,-0.9218,-0.9218,-0.9215,-0.9215,-0.9213,-0.9217,-0.9216,-0.9216,-0.9216,0,-0.9087,-0.9096,-0.9108,-0.9121,-0.9125,-0.9131,-0.9142,-0.915,-0.9161,-0.9166,-0.9175,-0.9181,-0.9191,-0.9192,-0.9206,-0.9203,-0.9209,-0.9214,-0.9214,-0.9216,-0.9217,-0.9217,-0.9218,-0.9219,-0.9218,-0.9217,-0.9217,0,-0.9082,-0.9098,-0.9107,-0.9112,-0.9128,-0.9132,-0.9139,-0.915,-0.9156,-0.9166,-0.9171,-0.9182,-0.9188,-0.9197,-0.9207,-0.9207,-0.9219,-0.9222,-0.9224,-0.9224,-0.9227,-0.9226,-0.9228,-0.923,-0.923,-0.923,-0.923,0,-0.9084,-0.9091,-0.9105,-0.9111,-0.9119,-0.9129,-0.9137,-0.9144,-0.9154,-0.9162,-0.917,-0.9177,-0.919,-0.9199,-0.9206,-0.9217,-0.9219,-0.9224,-0.9226,-0.9223,-0.9223,-0.9227,-0.9227,-0.923,-0.923,-0.923,-0.923,0,-0.9081,-0.909,-0.9101,-0.9114,-0.9118,-0.9124,-0.9136,-0.9142,-0.915,-0.9159,-0.9162,-0.9175,-0.9185,-0.9196,-0.9211,-0.9216,-0.9226,-0.9229,-0.9222,-0.9223,-0.9226,-0.9225,-0.9231,-0.9232,-0.9233,-0.9233,-0.9233,0,-0.9081,-0.9087,-0.9101,-0.9106,-0.9113,-0.9122,-0.9128,-0.9138,-0.9145,-0.9158,-0.9163,-0.9174,-0.9184,-0.9201,-0.9212,-0.9223,-0.9226,-0.9227,-0.9228,-0.9225,-0.9226,-0.9226,-0.9227,-0.9227,-0.9227,-0.9227,-0.9227,0,-0.9082,-0.9086,-0.9095,-0.9105,-0.9113,-0.9122,-0.9131,-0.9135,-0.9147,-0.9154,-0.9165,-0.9173,-0.9188,-0.9199,-0.9211,-0.9219,-0.9225,-0.9226,-0.9228,-0.9225,-0.9221,-0.9224,-0.9222,-0.9226,-0.9226,-0.9226,-0.9226,-0.9226,-0.908,-0.9086,-0.9096,-0.9106,-0.9114,-0.9123,-0.9129,-0.9138,-0.9147,-0.9159,-0.9165,-0.9176,-0.9188,-0.9205,-0.9213,-0.9222,-0.9223,-0.9225,-0.9226,-0.9226,-0.9226,-0.9219,-0.9224,-0.9224,-0.9224,-0.9224,-0.9224,0,-0.9081,-0.9088,-0.9097,-0.911,-0.9117,-0.9122,-0.9133,-0.9139,-0.9148,-0.9158,-0.9168,-0.918,-0.9191,-0.9203,-0.9215,-0.922,-0.9223,-0.9223,-0.9223,-0.9224,-0.9223,-0.9221,-0.922,-0.922,-0.922,-0.922,-0.922,-0.922,-0.9082,-0.9092,-0.9097,-0.9111,-0.9119,-0.9129,-0.9135,-0.9143,-0.9151,-0.9165,-0.9174,-0.9181,-0.9192,-0.9205,-0.9215,-0.9218,-0.9223,-0.9222,-0.9226,-0.9224,-0.9225,-0.9225,-0.9223,-0.9222,-0.9222,-0.9226,-0.9226,-0.9226]},{"header":{"parameterUnit":"m.s-1","parameterCategory":1,"la1":30.2991,"la2":30.254,"lo1":-89.0895,"lo2":-89.0444,"dy":0.0017,"dx":0.0017,"nx":28,"ny":28,"refTime":"2024-05-03T03:00:00:Z","depth":0,"parameterNumber":3,"parameterNumberName":"V-component_of_WINDS"},"data":[0,0,0,0,0,0,0,0,0,0,0,0,0,0,0,0,0,0,0,0,0,0,0,0,0,0,0,0,0,0,0,0,0,0,0,0,0,0,0,0,0,0,0,0,0,0,0,0,0,0,0,0,0,0,0,0,0,0,2.6138,2.6138,0,2.6102,2.6102,2.6102,2.6049,2.6048,2.6047,2.6046,2.6009,2.6009,2.6008,0,0,0,0,0,0,0,0,0,0,0,0,0,2.6161,2.6161,2.6138,2.6138,2.6138,2.6102,2.6102,2.6101,2.6049,2.6048,2.6047,2.6046,2.6009,2.6009,2.6008,0,0,0,0,0,0,0,0,0,0,0,0,0,2.6141,2.6161,2.6139,2.6107,2.6104,2.6103,2.6102,2.6101,2.6049,2.6048,2.6046,2.6045,2.6009,2.6009,2.6008,2.6035,0,0,2.6008,2.6008,0,0,0,0,0,0,0,0,2.6142,2.614,2.6112,2.6109,2.6106,2.6079,2.6096,2.6079,2.6049,2.607,2.6046,2.6044,2.6033,2.6031,2.6027,2.6033,2.6031,2.6008,2.6008,2.6008,2.6007,0,0,0,0,0,0,0,2.6144,2.6141,2.6124,2.6112,2.6108,2.6095,2.609,2.6093,2.606,2.6068,2.6064,2.6061,2.6031,2.6027,2.6026,2.6031,2.6008,2.6008,2.6007,2.6007,2.6056,2.6057,0,0,0,0,0,0,2.615,2.6143,2.6125,2.6123,2.6121,2.6095,2.609,2.6089,2.6059,2.6054,2.6062,2.6058,2.6028,2.6026,2.6024,2.6053,2.6008,2.6007,2.6007,2.6055,2.6056,2.6058,0,0,0,0,0,0,2.6151,2.6149,2.6127,2.6132,2.6128,2.6096,2.6095,2.6089,2.6085,2.6055,2.6049,2.6064,2.6027,2.6025,2.6032,2.6051,2.6007,2.6007,2.6053,2.6055,2.6057,2.611,0,0,0,0,0,0,2.6151,2.6149,2.6159,2.6133,2.6128,2.6136,2.6096,2.6089,2.6085,2.608,2.6055,2.605,2.6026,2.6033,2.6032,2.605,2.6007,2.6051,2.6054,2.6057,2.6107,2.6114,2.612,0,0,0,0,0,2.6152,2.6175,2.616,2.6158,2.614,2.6137,2.6134,2.6106,2.6087,2.6096,2.6077,2.6051,2.6049,2.6034,2.6033,2.605,2.605,2.6053,2.6056,2.6104,2.6112,2.612,0,0,0,0,0,0,2.6205,2.6171,2.6154,2.6169,2.6156,2.6128,2.6139,2.6117,2.6109,2.6105,2.607,2.6065,2.6077,2.6065,2.6049,2.6074,2.6045,2.6049,2.6082,2.609,2.6097,2.6099,2.6007,0,0,0,0,0,2.6218,2.6219,2.619,2.6206,2.62,2.6171,2.6169,2.6149,2.6134,2.6128,2.6109,2.6096,2.6092,2.6091,2.6086,2.6105,2.6098,2.6116,2.6123,2.6129,2.6131,2.614,2.6147,2.6068,2.6068,2.6068,0,0,2.6246,2.6228,2.623,2.6216,2.6204,2.6205,2.6167,2.617,2.6171,2.6129,2.6135,2.6121,2.6103,2.6117,2.6122,2.6107,2.6152,2.6133,2.6137,2.6137,2.6144,2.6152,2.6158,2.6071,2.607,2.607,0,0,2.6296,2.6283,2.6295,2.6283,2.6265,2.6246,2.6249,2.6224,2.6213,2.6219,2.6187,2.6187,2.6182,2.6171,2.6164,2.6211,2.6187,2.6211,2.6245,2.6254,2.626,2.6265,2.6282,2.6288,2.6214,2.6214,2.6214,0,2.6333,2.6334,2.6304,2.6309,2.6303,2.6266,2.6277,2.6267,2.6249,2.6246,2.6229,2.6221,2.6207,2.6217,2.6229,2.6225,2.6227,2.6213,2.6262,2.6267,2.6271,2.6286,2.6292,2.6217,2.6216,2.6216,2.6216,0,2.6379,2.638,2.6392,2.6375,2.6371,2.6379,2.635,2.635,2.633,2.6312,2.6318,2.63,2.629,2.6291,2.6272,2.6299,2.629,2.6268,2.6238,2.6282,2.6296,2.6301,2.6221,2.622,2.6219,2.6218,0,0,2.6461,2.6428,2.6432,2.6424,2.6401,2.6402,2.6408,2.6399,2.6399,2.6388,2.6392,2.6388,2.6368,2.6361,2.634,2.6348,2.6385,2.6325,2.6324,2.6336,2.6413,2.6429,2.6436,2.6369,2.637,2.6371,2.6414,0,2.6507,2.6516,2.6489,2.6505,2.6506,2.647,2.6476,2.6462,2.6446,2.6444,2.6425,2.6423,2.6397,2.6392,2.6399,2.6379,2.64,2.6376,2.6372,2.6372,2.6377,2.6443,2.646,2.6502,2.6419,2.642,2.6421,0,2.6561,2.6552,2.6569,2.6545,2.6544,2.655,2.6539,2.6537,2.6522,2.6509,2.6501,2.6477,2.6481,2.6454,2.6459,2.6443,2.644,2.643,2.6431,2.6429,2.6399,2.6442,2.6514,2.652,2.6429,2.6428,2.6427,0,2.6619,2.6611,2.6619,2.6614,2.6586,2.6591,2.658,2.6563,2.6559,2.655,2.6547,2.6538,2.6533,2.6527,2.6501,2.6483,2.6509,2.6479,2.6498,2.6499,2.6505,2.6505,2.6577,2.6504,2.6504,2.6504,2.6504,0,2.6672,2.6683,2.6645,2.665,2.6661,2.6631,2.6643,2.6628,2.6613,2.6615,2.6583,2.6585,2.6551,2.6549,2.6529,2.6536,2.6534,2.6524,2.6518,2.6526,2.6527,2.6523,2.6519,2.6505,2.6505,2.6505,2.6505,0,2.6738,2.6713,2.672,2.6693,2.6687,2.6697,2.6674,2.6678,2.6659,2.6662,2.666,2.6632,2.6628,2.6601,2.6591,2.6577,2.6592,2.6581,2.6597,2.6593,2.6614,2.6612,2.6685,2.6693,2.6616,2.6617,2.6618,0,2.6773,2.6781,2.6756,2.6754,2.6745,2.6743,2.6739,2.6709,2.6706,2.6689,2.6695,2.6688,2.6682,2.6677,2.6655,2.6647,2.6635,2.6661,2.6634,2.6642,2.6635,2.6634,2.6635,2.6667,2.6668,2.6669,2.667,0,2.6838,2.6826,2.6821,2.6812,2.6808,2.68,2.679,2.679,2.6757,2.6755,2.6751,2.6746,2.6736,2.673,2.6718,2.6706,2.6682,2.6678,2.6682,2.669,2.6699,2.6694,2.6613,2.6677,2.6676,2.6676,2.6675,2.6675,2.689,2.6895,2.6878,2.6874,2.6863,2.6854,2.6856,2.6838,2.6834,2.6823,2.6806,2.6804,2.6788,2.677,2.676,2.6758,2.6744,2.6749,2.6751,2.6753,2.6757,2.67,2.6755,2.6755,2.6755,2.6755,2.6755,0,2.6953,2.694,2.6937,2.6923,2.692,2.6898,2.6886,2.6884,2.6883,2.687,2.6864,2.6859,2.6853,2.6831,2.6822,2.6825,2.6813,2.6823,2.6823,2.682,2.677,2.6767,2.6833,2.6832,2.6832,2.6832,2.6832,2.6832,2.6985,2.6993,2.6978,2.6979,2.6967,2.6965,2.6959,2.6951,2.694,2.6936,2.6931,2.6916,2.6899,2.6889,2.6883,2.6876,2.6874,2.6888,2.6878,2.6831,2.6824,2.6816,2.6814,2.6888,2.6888,2.6928,2.6928,2.6929]}]]